Regional Weather Roundup
Issued by NWS

Home | Current Version | Previous Version | Graphics & Text | Print | Product List | Glossary On
Versions: 1 2 3 4 5 6 7 8 9 10 11 12 13 14 15 16 17 18 19 20 21 22 23 24 25 26 27 28 29 30 31 32 33 34 35 36 37 38 39 40 41 42 43 44 45 46 47 48 49 50
000
ASUS43 KOAX 222010
RWRNE

WEATHER ROUNDUP FOR NEBRASKA
NATIONAL WEATHER SERVICE OMAHA NE
300 PM CDT TUE MAY 22 2018

NOTES: SATELLITE DATA IS BEING USED TO AUGMENT CLOUD COVER ABOVE
       12000 FEET.
       "FAIR" INDICATES FEW OR NO CLOUDS BELOW 12,000 FEET WITH NO
       SIGNIFICANT WEATHER AND/OR OBSTRUCTIONS TO VISIBILITY.


NEZ001>004-019>022-054>056-222100-
NEBRASKA PANHANDLE

CITY           SKY/WX    TMP DP  RH WIND       PRES   REMARKS
SCOTTSBLUFF    SUNNY     80  59  48 SE13      29.90F
ALLIANCE       MOSUNNY   81  52  36 SE17      29.92F
CHADRON        MOSUNNY   83  53  35 E9G16     29.89F
GORDON         FAIR      82  53  35 SE14      29.93S
KIMBALL        SUNNY     75  53  46 SE14G22   29.95F
SIDNEY         PTSUNNY   78  51  38 SE20G26   29.95S
$$

NEZ057>060-069>072-079>082-222100-
SOUTHWEST NEBRASKA

CITY           SKY/WX    TMP DP  RH WIND       PRES   REMARKS
NORTH PLATTE   CLOUDY    81  61  50 SE8       29.93F
IMPERIAL       CLOUDY    83  53  35 SE21G33   29.90F
LEXINGTON      PTSUNNY   83  61  47 SE10      29.93F
MCCOOK         MOSUNNY   84  58  40 S17G25    29.90F
OGALLALA       CLOUDY    79  53  40 SE12G22   29.92F
$$

NEZ005>010-023>029-035>040-094-222100-
NORTH CENTRAL NEBRASKA

CITY           SKY/WX    TMP DP  RH WIND       PRES   REMARKS
VALENTINE      MOSUNNY   83  63  50 SE13      29.92F
AINSWORTH      MOSUNNY   79  65  62 SE12      29.93F
BROKEN BOW     CLOUDY    82  59  45 S12       29.94S
O`NEILL        PTSUNNY   80  67  63 E9        29.94F
ORD            CLOUDY    82  63  52 S10       29.91F
THEDFORD       CLOUDY    82  58  43 SE13G20   29.94F
$$

NEZ041-046>049-061>064-073>077-083>087-222100-
SOUTH CENTRAL NEBRASKA

CITY           SKY/WX    TMP DP  RH WIND       PRES   REMARKS
GRAND ISLAND   MOSUNNY   85  67  54 S10       29.94F
AURORA         MOSUNNY   83  64  51 S10       29.93F
HASTINGS       SUNNY     86  62  44 S14G23    29.94F
HEBRON         MOSUNNY   89  61  38 S9G20     29.95F
HOLDREGE       SUNNY     83  63  50 S9G18     29.93F
KEARNEY        SUNNY     84  63  49 S16       29.94F
YORK           CLOUDY    84  66  54 S10       29.93F
$$

NEZ011>018-030>034-042>045-222100-
NORTHEAST NEBRASKA

CITY           SKY/WX    TMP DP  RH WIND       PRES   REMARKS
NORFOLK        CLOUDY    85  64  49 S12G22    29.90F
ALBION         MOSUNNY   82  66  58 S13       29.93F
BLAIR          PTSUNNY   77  64  62 SE13G23   29.96F
COLUMBUS       CLOUDY    86  65  49 S16G24    29.93F
FREMONT        CLOUDY    81  66  61 SE17      29.96F
TEKAMAH        CLOUDY    81  69  67 S23G29    29.95F
WAYNE          PTSUNNY   76  74  93 SE14G20   29.95F
$$

NEZ050>053-065>068-078-088>093-222100-
SOUTHEAST NEBRASKA

CITY           SKY/WX    TMP DP  RH WIND       PRES   REMARKS
LINCOLN        CLOUDY    86  64  47 S16G24    29.94F
OMAHA EPPLEY   PTSUNNY   79  62  56 S14G23    29.96F
BEATRICE       MOSUNNY   88  63  43 S8        29.96F
FALLS CITY     MOSUNNY   87  60  40 SE14G33   29.97F
NEBRASKA CITY  PTSUNNY   84  66  55 S13G22    29.97F
PLATTSMOUTH    CLOUDY    78  66  67 SE14      29.97F
$$

NEZ044-045-051>053-067-222100-
OMAHA AREA

CITY           SKY/WX    TMP DP  RH WIND       PRES   REMARKS
OMAHA EPPLEY   PTSUNNY   79  62  56 S14G23    29.96F
BLAIR          PTSUNNY   77  64  62 SE13G23   29.96F
FREMONT        CLOUDY    81  66  61 SE17      29.96F
MILLARD        CLOUDY    81  69  66 SE14      29.96F
OFFUTT AFB     MOSUNNY   80  67  66 S14       29.95F
PLATTSMOUTH    CLOUDY    78  66  67 SE14      29.97F
WAHOO          FAIR      83  64  53 SE22      29.95F
$$




USA.gov is the U.S. government's official web portal to all federal, state and local government web resources and services.